LiveATC.Net - Listen to live air traffic control over the Internet!

Find LiveATC Audio Streams


Airport/ARTCC Code

Frequency Search
(e.g., 124.400, 128.75)
Site-wide search
 


Browse LiveATC Feeds
LiveATC Coverage Map
Top 50 LiveATC Feeds
Bad Weather Areas

LiveATC FAQ
Offer a LiveATC Feed
Contact LiveATC.net
Press Inquiries

LiveATC on iPhone
LiveATC on Android

Windows Phone
Windows 8/10

LiveATC Mobile
(Mobile browser)

ATC Audio Archives
Interesting Recordings

LiveATC Forums

Home Page
About LiveATC.net
Make a Donation
LiveATC Store

Terms of Use
Privacy Policy

Canadian Air Freqs

AIRMETs/SIGMETs

FAA Airport Status
Nat'l Airspace Status
Arrival Demand Charts


Server Software By:
Icecast.org
Liquidsoap

Select an area of interest:
U.S. Feeds: Class B Airports | Class C Airports | Class D/Other Airports | ARTCC (Centers)
International Feeds: Canada | Europe | Oceania | Asia | South America | North/Central America | Africa
Misc Feeds: HF Feeds
Search by ICAO/IATA airport code:   (e.g., kbos, kjfk, lax, eham, etc.)


Currently Available Live Feeds: 1754
Status Updated: Sat Jul 22 2017 02:50:01 UTC


NOTICE

Unauthorized use prohibited. See LiveATC.net Terms of Service

Africa Airport Feeds

 

FIMP Twr/App/Ctr #1
Plaine Magnien, Mauritius

Feed Status: DOWN
Offline since: 2017-07-01 14:26:02 UTC
FIMP 220200Z 32002KT 9999 VCSH BKN015 21/20 Q1020

FIMP Approach: 119.100
FIMP Tower: 118.100
FMEE Approach/Departure: 127.200
Mauritius Centre: 129.300

FIMP Twr/App/Ctr #2 (Archives)
Plaine Magnien, Mauritius

Feed Status: UP

Click on your favorite media player to listen:
Listen with WinAmp to FIMP Twr/App/Ctr #2  Listen with iTunes to FIMP Twr/App/Ctr #2  Click here to listen if using Real Player  Click here to listen if using Windows Media Player

Or simply listen in your browser:

Listen right in your browser(in browser, requires Flash)

FIMP 220200Z 32002KT 9999 VCSH BKN015 21/20 Q1020


Listeners: 0 out of 1238 total

FIMP Approach: 119.100
FIMP Tower: 118.100
Mauritius Centre: 129.300

FMEE Tower (Archives)
Sainte-Marie, Reunion

Feed Status: UP

Click on your favorite media player to listen:
Listen with WinAmp to FMEE Tower  Listen with iTunes to FMEE Tower  Click here to listen if using Real Player  Click here to listen if using Windows Media Player

Or simply listen in your browser:

Listen right in your browser(in browser, requires Flash)

FMEE 220200Z 18006KT 9999 SCT110 20/15 Q1019 NOSIG


Listeners: 0 out of 1238 total

Gillot Tower: 118.400

FMEP Info
Saint-Pierre, Reunion

Feed Status: DOWN
Offline since: 2017-07-18 17:02:03 UTC
FMEP 220200Z AUTO 04005KT 9999 SCT016 BKN025 BKN030 20/14 Q1019

Saint-Pierre Info: 122.400

FMMI Twr/App/Center (Archives)
Antananarivo, Madagascar

Feed Status: UP

Click on your favorite media player to listen:
Listen with WinAmp to FMMI Twr/App/Center  Listen with iTunes to FMMI Twr/App/Center  Click here to listen if using Real Player  Click here to listen if using Windows Media Player

Or simply listen in your browser:

Listen right in your browser(in browser, requires Flash)

FMMI 220230Z 24001KT 9999 FEW020 07/07 Q1024 TEMPO 5000BR


Listeners: 0 out of 1238 total

Ivato Approach: 125.700
Ivato Tower: 120.100
Tana Control: 128.900

GOOY Tower/Control
Dakar, Senegal

Feed Status: DOWN
Offline since: 2017-05-28 23:42:03 UTC
GOOY 220200Z 30011KT 270V340 9999 BKN015 27/23 Q1014 NOSIG

Dakar Control: 120.500
Dakar Tower: 118.100